Home   Weather   Khartoum   Past weeks
Flag for Sudan

Past Weather in Khartoum, Sudan — July 2018

Now
100 °F

Sunny.


Feels Like: 100 °F
Forecast: 103 / 82 °F
Wind: 13 mph from Southwest

Location: Khartoum Airport

Current Time: Sep 20, 2019 at 12:18:58 pm

Latest Report: Sep 20, 2019 at 12:00 pm


Visibility: 10 mi

Pressure: 29.80 "Hg

Humidity: 25%

Dew Point: 59 °F

Location of KhartoumLocation

July 2018 Weather in Khartoum — Graph

°F

High & Low Weather Summary for July 2018

 TemperatureHumidityPressure
High108 °F (Jul 3, 3:00 pm)89% (Jul 24, 5:16 am)30.01 "Hg (Jul 24, 5:16 am)
Low72 °F (Jul 24, 8:30 am)9% (Jul 14, 6:00 pm)29.53 "Hg (Jul 25, 4:00 pm)
Average90 °F43%29.84 "Hg
* Reported Jul 1 12:00 am — Jul 31 11:30 pm, Khartoum. Weather by CustomWeather, © 2019

Note: Actual official high and low records may vary slightly from our data, if they occured in-between our weather recording intervals... More about our weather records

Advertising

Khartoum Weather History for July 1, 2018

Scroll right to see more
 ConditionsComfort  
Time TempWeatherWind HumidityBarometerVisibility
12:00 am
Sun, Jul 1
90 °FClear.9 mph41%29.77 "Hg10 mi
12:30 am90 °FClear.8 mph41%29.77 "Hg10 mi
1:00 am90 °FClear.8 mph41%29.77 "Hg10 mi
1:30 am90 °FClear.8 mph41%29.77 "Hg10 mi
2:00 am90 °FClear.10 mph41%29.77 "Hg10 mi
2:30 am90 °FClear.8 mph41%29.77 "Hg10 mi
3:00 am88 °FClear.9 mph43%29.77 "Hg10 mi
3:30 am86 °FClear.8 mph49%29.80 "Hg10 mi
4:30 am84 °FClear.14 mph55%29.83 "Hg10 mi
5:00 am84 °FClear.14 mph55%29.83 "Hg10 mi
5:30 am81 °FSunny.14 mph70%29.83 "Hg10 mi
6:00 am81 °FSunny.15 mph62%29.83 "Hg10 mi
6:30 am79 °FSunny.21 mph61%29.86 "Hg10 mi
7:00 am81 °FSunny.21 mph62%29.86 "Hg10 mi
7:30 am81 °FSunny.21 mph66%29.89 "Hg10 mi
8:00 am84 °FWarm.26 mph58%N/A5 mi
8:30 am86 °FWarm.22 mph52%N/A5 mi
9:00 am86 °FWarm.21 mph46%29.89 "Hg4 mi
9:30 am88 °FWarm.25 mph43%29.89 "Hg4 mi
10:30 am91 °FHot.20 mph36%29.89 "Hg4 mi
11:00 am91 °FHot.20 mph38%29.89 "Hg4 mi
11:30 am93 °FExtremely hot.18 mph32%29.86 "Hg4 mi
12:00 pm95 °FExtremely hot.17 mph30%29.86 "Hg5 mi
12:30 pm95 °FExtremely hot.17 mph30%29.83 "Hg5 mi
1:00 pm97 °FExtremely hot.16 mph28%29.83 "Hg4 mi
1:30 pm97 °FExtremely hot.13 mph28%29.83 "Hg4 mi
2:00 pm97 °FSandstorm.17 mph27%29.80 "Hg2 mi
3:00 pm97 °FExtremely hot.17 mph28%29.77 "Hg4 mi
3:30 pm97 °FSunny.10 mph28%29.77 "Hg10 mi
4:00 pm97 °FSunny.10 mph27%29.77 "Hg10 mi
4:30 pm97 °FSunny.15 mph27%29.77 "Hg10 mi
5:00 pm97 °FSunny.10 mph27%29.77 "Hg10 mi
5:30 pm97 °FSunny.10 mph27%29.77 "Hg10 mi
6:00 pm95 °FSunny.8 mph28%29.77 "Hg10 mi
6:30 pm95 °FClear.6 mph28%29.77 "Hg10 mi
7:00 pm95 °FClear.7 mph28%29.77 "Hg10 mi
8:30 pm93 °FClear.9 mph30%29.77 "Hg10 mi
9:00 pm91 °FClear.12 mph36%29.80 "Hg10 mi
9:30 pm91 °FClear.12 mph36%29.80 "Hg10 mi
10:00 pm91 °FClear.13 mph36%29.83 "Hg10 mi
10:30 pm91 °FClear.10 mph36%29.83 "Hg10 mi
11:00 pm91 °FClear.7 mph36%29.83 "Hg10 mi
11:30 pm90 °FClear.10 mph41%29.83 "Hg10 mi
Weather by CustomWeather, © 2019

See weather overview